KC3ROB-13 Weather Reports


time (UTC)temp
C
wind
direction
speed
KPH
gust
KPH
rain 1hr
cm
rain 24hr
cm
rain mn
cm
humidity
%
barometer
mb
20260505034012 16 0 0.0 0.0 0.00 0.00 0.00 100 1004.7
20260505033012 16 0 0.0 0.0 0.00 0.00 0.00 100 1004.7
20260505032012 16 0 0.0 0.0 0.00 0.00 0.00 100 1004.7
20260505031012 17 0 0.0 0.0 0.00 0.00 0.00 100 1004.7
20260505030013 17 0 0.0 0.0 0.00 0.00 0.00 100 1004.4
20260505025002 17 0 0.0 0.0 0.00 0.00 0.00 100 1004.7
20260505024002 17 0 0.0 0.0 0.00 0.00 0.00 100 1005.1
20260505023002 17 0 0.0 0.0 0.00 0.00 0.00 100 1005.1
20260505022002 17 0 0.0 0.0 0.00 0.00 0.00 100 1004.7
20260505021002 17 0 0.0 0.0 0.00 0.00 0.00 100 1004.7
20260505020003 17 0 0.0 0.0 0.00 0.00 0.00 100 1004.7
20260505015002 17 0 0.0 0.0 0.00 0.00 0.00 100 1004.7
20260505014002 17 0 0.0 0.0 0.00 0.00 0.00 100 1004.7
20260505013002 18 0 0.0 0.0 0.00 0.00 0.00 100 1004.7
20260505012003 18 0 0.0 0.0 0.00 0.00 0.00 100 1004.4
20260505011002 18 0 0.0 0.0 0.00 0.00 0.00 100 1004.4
20260505010003 18 0 0.0 0.0 0.00 0.00 0.00 100 1004.4
20260505005002 19 0 0.0 0.0 0.00 0.00 0.00 100 1004.1
20260505004003 19 0 0.0 0.0 0.00 0.00 0.00 100 1004.1
20260505003002 19 0 0.0 0.0 0.00 0.00 0.00 100 1004.1
20260505002003 20 0 0.0 0.0 0.00 0.00 0.00 100 1004.1
20260505001002 20 0 0.0 0.0 0.00 0.00 0.00 100 1004.1
20260505000002 20 0 0.0 0.0 0.00 0.00 0.00 100 1003.7
20260504235003 21 0 0.0 0.0 0.00 0.00 0.00 100 1003.7
20260504234002 21 0 0.0 0.0 0.00 0.00 0.00 100 1003.7
20260504233003 22 0 0.0 0.0 0.00 0.00 0.00 100 1003.7
20260504232002 22 0 0.0 0.0 0.00 0.00 0.00 100 1003.7
20260504231002 22 0 0.0 0.0 0.00 0.00 0.00 100 1003.7
20260504230002 22 0 0.0 0.0 0.00 0.00 0.00 100 1003.7
20260504225002 22 0 0.0 0.0 0.00 0.00 0.00 100 1003.7
20260504224003 23 0 0.0 0.0 0.00 0.00 0.00 100 1003.7
20260504223002 23 0 0.0 0.0 0.00 0.00 0.00 100 1003.7
20260504222003 23 0 0.0 0.0 0.00 0.00 0.00 100 1003.7
20260504221004 23 0 0.0 0.0 0.00 0.00 0.00 100 1003.7
20260504220002 23 0 0.0 0.0 0.00 0.00 0.00 100 1004.1
20260504215002 23 0 0.0 0.0 0.00 0.00 0.00 100 1004.1
20260504214002 23 0 0.0 0.0 0.00 0.00 0.00 100 1004.1
20260504213003 23 0 0.0 0.0 0.00 0.00 0.00 100 1004.1
20260504212003 23 0 0.0 0.0 0.00 0.00 0.00 100 1003.7
20260504211002 23 0 0.0 0.0 0.00 0.00 0.00 100 1003.7
20260504210003 23 0 0.0 0.0 0.00 0.00 0.00 100 1004.1
20260504205002 23 0 0.0 0.0 0.00 0.00 0.00 100 1004.1
20260504204002 23 0 0.0 0.0 0.00 0.00 0.00 100 1004.1
20260504203003 24 0 0.0 0.0 0.00 0.00 0.00 100 1004.1
20260504202003 24 0 0.0 0.0 0.00 0.00 0.00 100 1004.4
20260504201002 24 0 0.0 0.0 0.00 0.00 0.00 100 1004.4
20260504200002 23 0 0.0 0.0 0.00 0.00 0.00 100 1004.4
20260504195002 23 0 0.0 0.0 0.00 0.00 0.00 100 1004.4
20260504194002 23 0 0.0 0.0 0.00 0.00 0.00 100 1004.7
20260504193003 22 0 0.0 0.0 0.00 0.00 0.00 100 1005.1
20260504192002 22 0 0.0 0.0 0.00 0.00 0.00 100 1005.1
20260504191002 22 0 0.0 0.0 0.00 0.00 0.00 100 1005.1
20260504190002 22 0 0.0 0.0 0.00 0.00 0.00 100 1005.1
20260504185002 22 0 0.0 0.0 0.00 0.00 0.00 100 1005.1
20260504184003 22 0 0.0 0.0 0.00 0.00 0.00 100 1005.4
20260504183002 21 0 0.0 0.0 0.00 0.00 0.00 100 1005.4
20260504182002 21 0 0.0 0.0 0.00 0.00 0.00 100 1006.1
20260504181002 21 0 0.0 0.0 0.00 0.00 0.00 100 1006.1
20260504180003 21 0 0.0 0.0 0.00 0.00 0.00 100 1006.1
20260504175002 21 0 0.0 0.0 0.00 0.00 0.00 100 1006.1
20260504174003 21 0 0.0 0.0 0.00 0.00 0.00 100 1006.1
20260504173003 21 0 0.0 0.0 0.00 0.00 0.00 100 1006.4
20260504172002 21 0 0.0 0.0 0.00 0.00 0.00 100 1006.8
20260504171003 21 0 0.0 0.0 0.00 0.00 0.00 100 1006.8
20260504151002 18 0 0.0 0.0 0.00 0.00 0.00 100 1007.8
20260504141002 16 0 0.0 0.0 0.00 0.00 0.00 100 1008.1
20260504081051 8 0 0.0 0.0 0.00 0.00 0.00 100 1009.1
20260504045051 10 0 0.0 0.0 0.00 0.00 0.00 100 1009.1
20260504044051 11 0 0.0 0.0 0.00 0.00 0.00 100 1008.8
20260504043051 11 0 0.0 0.0 0.00 0.00 0.00 100 1008.5
20260504042052 11 0 0.0 0.0 0.00 0.00 0.00 100 1008.5
20260504041051 11 0 0.0 0.0 0.00 0.00 0.00 100 1008.5
20260504040051 11 0 0.0 0.0 0.00 0.00 0.00 100 1008.1
20260504035051 11 0 0.0 0.0 0.00 0.00 0.00 100 1007.8